EHI
2 6 8 3 0 1 2 3 4 5 6 7 7 7 7 5 2 1 0 0 0 0 0 0 0 0 0 0 0 0 0 0 0 0 0 0 0 0 0 0 0 0 0
3 6 7 3 1 1 2 3 3 4 7 9 9 9 9 7 4 1 0 0 0 0 0 0 1 1 0 0 0 0 0 0 0 0 0 0 0 0 0 0 0 0 0
4 6 5 3 2 2 3 4 3 4 7 11 11 11 10 9 5 1 0 0 0 0 0 1 2 1 1 1 1 0 0 0 0 0 0 0 0 0 0 0 0 0 0
4 4 4 4 3 3 4 4 4 5 7 9 9 10 9 7 4 1 0 0 0 0 0 1 2 1 1 1 1 0 0 1 1 1 1 0 0 0 0 0 0 0 0
3 4 5 6 5 3 2 3 4 5 5 5 6 6 6 4 2 0 0 0 0 0 0 1 1 1 0 1 1 0 1 2 2 2 1 0 0 0 0 0 0 0 0
1 3 6 8 6 3 2 3 7 8 7 5 4 3 3 1 0 0 0 0 0 0 0 0 1 1 1 0 1 2 2 2 1 1 0 0 0 0 0 1 1 0 0
0 2 6 8 6 4 4 6 9 11 10 7 4 2 2 1 1 0 0 0 0 0 0 0 1 1 1 1 2 3 3 2 1 0 0 0 0 0 0 1 2 2 2
0 2 5 7 6 6 6 6 7 8 9 8 6 3 2 2 1 0 1 1 1 0 0 0 0 1 2 3 3 3 2 1 0 0 0 0 0 0 0 1 1 3 4
0 1 4 6 6 6 7 6 5 4 5 5 5 3 2 2 2 1 2 3 2 0 0 0 0 1 2 3 3 3 3 2 1 0 0 0 0 0 0 0 0 2 3
1 1 3 5 6 6 6 6 4 3 2 1 2 1 1 1 2 2 3 4 4 2 0 0 0 1 1 2 3 3 3 2 1 0 0 0 1 0 0 0 0 0 1
2 2 2 3 3 4 4 4 3 2 1 0 0 1 0 0 1 2 3 4 5 4 2 1 0 0 0 1 2 2 2 1 0 0 0 1 1 0 0 0 0 0 1
1 1 1 1 1 1 2 3 3 2 2 1 0 0 0 0 0 1 1 3 4 4 3 2 1 1 0 1 1 1 1 0 0 0 1 1 1 1 1 1 1 2 2
1 0 0 0 1 1 1 2 2 2 2 1 1 1 2 2 3 3 3 3 3 3 3 3 3 2 1 0 0 0 0 0 0 0 1 2 1 1 1 2 3 4 2
2 1 0 0 1 2 2 2 1 1 1 1 3 3 4 6 8 8 7 5 3 3 3 4 5 3 2 0 0 0 0 0 0 0 1 1 1 0 0 2 4 4 3
3 2 1 1 2 2 3 2 2 2 1 2 4 4 5 8 10 10 9 7 4 3 3 5 5 3 1 1 0 0 0 0 0 0 0 1 2 2 2 3 4 3 2
5 5 5 5 5 3 3 2 2 2 2 3 3 3 5 8 9 7 7 7 5 3 4 6 5 2 1 1 1 1 1 1 1 1 1 2 5 7 7 7 6 4 2
5 7 8 9 7 5 3 2 1 2 2 2 3 3 4 7 7 5 4 5 4 4 5 6 5 2 1 1 1 0 1 1 2 2 1 2 5 8 11 11 9 5 3
4 7 10 10 9 8 5 3 2 2 1 1 1 2 3 5 5 5 5 4 3 3 4 5 5 3 1 0 0 0 0 1 1 1 1 2 3 5 8 10 8 6 5
4 7 10 11 12 12 9 6 4 3 2 1 2 3 3 2 3 4 5 4 3 3 3 4 5 4 1 0 0 0 0 0 0 0 1 2 1 1 3 5 4 4 4
7 8 10 13 15 15 13 11 8 5 4 4 5 6 4 2 1 2 4 4 4 4 4 4 4 3 1 0 0 0 0 0 0 0 1 1 0 0 1 1 1 2 3
10 10 12 15 18 17 15 14 11 8 6 5 6 7 6 4 2 2 4 6 7 6 5 4 3 1 0 0 0 0 0 0 0 0 0 0 0 0 0 0 1 2 2
12 12 14 16 18 18 16 14 12 9 7 7 7 7 6 5 4 3 5 7 9 10 9 8 5 2 1 1 0 0 0 0 0 0 0 0 0 0 0 0 1 2 2
13 13 13 14 16 18 16 13 11 9 8 8 8 7 5 5 4 4 6 8 10 13 14 13 10 5 3 2 1 1 1 1 1 0 0 0 0 0 0 0 1 2 3
13 12 11 12 14 17 16 13 11 10 9 8 8 7 6 5 5 4 6 7 10 13 16 16 13 9 6 4 3 3 3 3 3 1 0 0 0 0 0 0 1 2 3
12 13 13 13 14 15 16 15 14 12 11 9 9 8 7 7 7 6 5 6 9 13 15 15 14 13 10 8 6 6 6 6 5 2 0 0 0 0 0 0 1 3 4
11 13 16 16 15 15 15 16 15 15 13 11 11 10 9 8 8 7 5 6 9 13 14 13 13 14 13 11 9 7 7 7 4 1 0 1 1 1 0 1 2 4 5
Wind_Speed
5 7 10 9 9 10 11 12 13 13 14 14 14 14 15 15 14 14 14 14 13 13 13 12 12 12 11 11 11 11 11 11 11 11 11 10 10 10 10 9 9 9 12
7 8 10 10 10 10 11 12 12 13 13 13 14 14 14 14 14 13 13 12 12 12 12 11 11 11 11 10 11 11 10 10 10 10 10 10 9 8 8 6 3 8 11
8 8 10 11 11 10 11 12 12 13 13 13 14 14 14 14 13 13 12 12 12 12 11 11 11 11 10 10 10 10 9 9 9 10 9 8 9 8 8 7 8 9 9
9 9 10 13 11 11 11 11 12 12 13 13 13 14 13 13 13 12 12 11 11 11 10 10 10 10 10 9 9 9 9 8 8 9 6 6 7 10 8 8 8 8 8
9 9 12 11 11 10 10 11 11 12 12 13 13 13 13 13 12 12 11 11 11 10 10 10 9 9 8 8 8 8 8 8 7 7 4 5 5 9 8 8 7 8 8
9 9 12 11 11 10 10 10 11 11 12 12 12 12 12 12 12 11 11 10 10 10 9 8 8 8 7 7 7 7 7 7 8 5 5 4 5 9 8 8 8 7 7
9 9 11 11 10 10 10 10 10 11 11 11 11 11 11 11 10 10 10 10 9 9 8 7 7 7 6 6 6 6 6 6 5 4 5 5 6 8 8 7 7 7 7
8 9 11 11 10 10 10 10 10 11 11 11 10 10 10 9 9 9 8 8 8 8 7 7 6 6 6 6 6 6 5 6 5 4 4 5 8 8 8 8 8 8 8
8 8 8 9 10 10 9 9 9 9 10 10 9 9 8 8 7 7 7 7 7 7 7 7 6 5 5 6 6 6 5 6 4 3 4 4 9 8 8 8 8 8 8
6 7 7 7 7 8 9 9 9 8 8 9 8 8 7 7 7 7 7 6 6 7 7 7 6 6 6 6 6 6 7 8 5 4 3 6 9 8 8 9 9 9 9
6 5 6 6 6 5 6 9 8 9 8 8 8 8 6 4 5 6 5 5 6 6 6 7 7 7 7 8 8 8 9 4 3 2 2 8 8 8 8 9 9 9 9
7 6 5 4 5 5 4 5 4 5 6 4 4 5 3 2 2 2 6 6 6 7 8 8 7 9 9 5 8 10 5 4 3 3 4 8 7 7 8 9 9 9 9
7 6 5 5 4 4 3 3 3 3 3 4 3 3 2 2 2 2 2 4 5 6 5 7 7 4 3 2 3 3 3 3 2 2 5 9 7 7 8 9 9 9 9
6 6 5 5 4 3 2 2 3 3 2 2 3 2 2 1 1 1 1 1 2 2 2 2 2 3 3 3 4 3 3 3 2 1 4 8 7 7 8 9 9 10 10
6 5 5 5 4 3 2 1 2 2 2 3 2 2 2 1 1 1 1 0 1 1 2 2 2 3 3 4 4 4 4 3 3 2 2 8 8 8 8 9 9 10 10
5 5 5 5 4 3 2 2 1 2 2 2 2 2 2 1 0 0 1 1 1 1 1 2 2 3 3 3 4 4 4 4 3 3 3 5 9 9 8 9 9 10 10
6 6 5 5 4 3 3 2 2 2 2 1 2 2 2 2 1 2 2 2 1 2 2 2 3 2 3 3 4 4 4 4 3 4 4 4 5 10 11 9 9 9 10
6 6 5 4 5 4 3 2 1 1 1 1 1 2 3 2 3 3 2 2 1 2 2 2 2 2 2 3 3 3 3 3 4 4 4 4 4 4 7 9 8 8 9
6 5 5 4 4 3 3 2 2 2 2 2 1 1 2 2 3 3 2 1 2 2 2 2 1 2 2 2 3 3 3 3 3 4 3 4 3 3 3 6 9 8 9
6 6 5 5 4 4 3 3 2 2 2 2 2 1 2 2 3 3 3 2 3 2 2 1 2 2 2 2 2 1 2 2 2 2 3 3 3 3 3 3 4 7 9
6 6 6 5 5 4 3 3 3 2 2 2 2 2 3 3 3 3 3 2 3 2 2 2 1 2 1 1 1 1 1 2 2 2 2 2 2 3 3 3 3 3 4
7 7 6 6 5 4 3 2 2 2 2 2 2 1 2 2 3 3 4 3 2 2 2 1 1 2 0 0 1 1 1 2 3 3 3 3 3 2 3 4 4 4 4
8 8 6 6 5 4 4 3 3 2 2 2 2 1 2 2 2 3 2 3 2 2 1 1 2 2 1 1 1 2 2 1 1 2 3 3 3 3 3 3 5 4 6
9 7 7 6 6 5 5 4 4 3 2 2 1 1 1 1 2 2 2 2 2 1 1 2 1 2 2 2 1 1 2 2 3 2 2 2 3 3 4 4 4 4 5
8 7 7 7 6 5 5 5 4 4 2 2 1 1 1 1 1 1 2 1 2 2 1 2 2 2 2 3 2 2 2 3 4 4 3 3 3 3 3 4 4 4 4
8 8 8 7 7 6 6 5 5 4 3 2 2 1 2 1 1 1 1 1 2 2 2 2 2 3 3 3 3 3 3 3 3 3 4 4 4 3 4 3 4 4 4
Wind_Direction
111 115 123 128 127 126 126 126 126 126 128 131 133 133 133 134 133 131 129 129 128 127 125 125 124 124 126 126 125 124 125 125 124 122 122 121 121 123 124 133 148 123 117
115 120 131 133 128 126 126 125 126 127 127 129 132 132 134 134 134 132 130 129 128 126 125 125 125 125 125 127 128 128 129 130 131 130 132 132 128 129 131 133 104 105 126
115 115 125 128 124 125 126 125 125 127 128 129 132 133 133 132 132 131 129 130 129 127 127 128 127 128 127 128 130 130 131 132 137 145 164 150 134 137 134 129 119 124 133
116 117 114 119 124 126 126 127 126 127 128 129 132 133 133 134 133 131 131 131 130 130 131 131 131 133 134 133 133 135 136 136 145 175 176 136 134 134 143 139 138 139 140
116 117 115 125 126 126 128 129 128 127 128 129 130 132 134 134 135 134 134 133 134 134 134 134 136 138 137 136 136 138 142 146 166 200 129 123 125 134 149 149 148 149 148
118 120 118 127 125 126 128 129 130 129 129 130 131 133 134 135 136 139 139 139 138 138 138 140 142 142 142 141 143 147 153 166 195 157 132 142 132 141 155 160 157 158 157
117 118 121 123 122 122 125 129 132 132 132 132 133 133 136 137 139 142 145 145 144 143 144 146 147 149 148 146 151 154 162 193 209 155 147 148 126 141 161 170 169 167 165
116 117 121 125 124 125 126 130 129 133 134 134 133 134 136 138 142 144 148 148 150 151 154 155 157 161 163 164 165 167 182 222 191 158 158 144 130 157 174 178 179 176 174
118 119 125 133 135 134 127 125 126 127 131 134 134 135 137 145 150 149 152 152 156 158 162 164 169 172 173 177 178 181 198 238 232 164 165 143 143 170 179 181 182 182 181
119 121 124 127 128 137 134 128 127 130 132 133 136 138 144 155 157 161 164 163 166 166 169 172 177 180 180 184 186 193 210 230 216 185 174 134 153 177 183 184 184 183 188
124 123 118 123 130 135 131 133 142 143 142 149 144 142 165 165 158 168 144 167 174 175 178 181 185 191 195 190 192 201 217 221 194 200 165 126 165 187 191 189 190 190 195
132 126 119 124 126 130 124 132 144 151 145 154 136 147 156 150 168 155 146 183 188 187 192 193 197 201 214 189 183 201 217 205 204 200 138 144 177 195 198 198 197 196 198
131 125 125 122 119 121 123 132 135 138 138 151 145 154 154 173 166 167 157 172 186 192 193 185 199 208 211 199 218 209 215 222 215 195 143 156 184 202 206 205 205 204 205
126 126 125 124 124 119 120 132 145 146 149 151 150 182 166 150 161 129 146 175 186 184 190 215 205 210 228 217 219 220 219 228 234 214 139 161 188 208 215 213 211 208 210
132 133 127 130 134 142 147 179 154 151 160 159 160 173 202 180 145 141 146 217 230 216 203 217 222 209 223 215 220 219 226 225 237 246 164 173 190 207 218 219 217 214 214
140 137 134 142 144 148 158 172 184 170 167 173 174 170 208 216 173 254 219 223 237 240 252 247 234 221 224 222 224 227 234 227 219 230 229 193 195 203 214 220 222 221 217
146 145 145 151 147 150 163 183 183 198 186 182 173 183 207 219 211 231 238 230 232 243 235 238 240 238 224 219 223 230 235 231 225 228 234 237 212 200 206 216 222 223 220
150 150 157 155 150 159 169 197 196 204 197 199 208 203 211 225 224 235 240 233 232 245 251 240 236 238 234 231 229 236 238 223 224 227 235 237 243 231 200 203 217 219 219
159 157 159 159 162 164 171 186 200 210 228 225 223 222 222 237 239 243 243 250 241 234 246 257 247 255 246 247 240 230 243 231 223 225 239 241 235 242 239 192 205 214 217
159 159 165 169 167 175 177 183 201 214 220 223 230 235 244 243 241 251 235 220 241 239 238 237 235 240 259 265 274 278 264 254 235 224 238 233 232 238 239 239 216 201 204
167 166 172 177 170 179 185 200 197 201 214 223 230 227 250 260 249 248 267 229 241 244 247 236 232 230 238 285 288 288 255 229 228 223 239 253 247 242 237 235 245 249 206
178 181 181 183 181 190 185 199 211 223 224 225 251 233 258 260 251 233 236 244 231 237 228 230 225 261 262 124 282 274 241 209 208 230 236 234 252 255 239 234 240 237 258
186 189 189 185 187 196 196 200 194 194 220 210 224 225 265 274 265 270 244 254 249 244 222 233 236 244 246 217 233 280 273 271 276 217 232 240 246 262 260 255 244 237 246
191 188 189 187 191 195 198 207 208 212 221 227 238 221 242 269 267 261 250 241 249 260 238 240 221 241 239 241 207 237 279 305 277 279 236 235 245 252 262 260 254 237 239
191 190 186 186 192 196 201 203 214 224 230 229 218 197 250 226 259 262 250 251 246 257 256 254 237 248 244 250 253 237 236 238 248 264 277 273 256 255 259 260 263 257 248
193 192 186 184 193 196 200 204 212 223 231 240 241 243 233 230 244 264 265 278 274 275 257 242 237 228 247 252 258 251 245 252 263 266 270 274 277 269 256 259 260 258 254